Mount Airy, NC

2:27 AM EDT on September 24, 2017 (GMT -0400)
Mount Airy-Surry County

Weather History for KMWK - March, 2013

Change the Weather History Date:

Friday, March 29, 2013

  Actual Average (KINT) Record (KINT)
Temperature  
Mean Temperature 44 °F -  
Max Temperature 62 °F 62 °F 83 °F (1989)
Min Temperature 26 °F 43 °F 16 °F (1966)
Degree Days  
Heating Degree Days 21    
Moisture  
Dew Point 18 °F    
Average Humidity 41    
Maximum Humidity 78    
Minimum Humidity 11    
Precipitation  
Precipitation 0.00 in - - ()
Sea Level Pressure  
Sea Level Pressure 30.24 in    
Wind  
Wind Speed 1 mph (WSW)    
Max Wind Speed 8 mph    
Max Gust Speed 18 mph    
Visibility 10 miles    
Events      
Averages and records for this station are not official NWS values.
T = Trace of Precipitation, MM = Missing Value Source: NWS Daily Summary

Daily Weather History Graph

Daily Weather History Graph

Search for Another Location

Airport or City:

Trip Planner

Search our weather history database for the weather conditions in past years. The results will help you decide how hot, cold, wet, or windy it might be!

Date:

Astronomy

Mar. 29, 2013 Rise Set
Actual Time 7:12 AM EDT 7:41 PM EDT
Civil Twilight 6:46 AM EDT 8:07 PM EDT
Nautical Twilight 6:15 AM EDT 8:38 PM EDT
Astronomical Twilight 5:44 AM EDT 9:09 PM EDT
Moon 10:34 PM EDT (3/29) 8:24 AM EDT (3/29)
Length of Visible Light 13h 21m
Length of Day
12h 29m
Waning Gibbous, 93% of the Moon is Illuminated
Mar 29
Waning Gibbous
Apr 3
Last Quarter
Apr 10
New
Apr 18
First Quarter
Apr 25
Full

Hourly Weather History & Observations

Time (EDT) Temp. Windchill Dew Point Humidity Pressure Visibility Wind Dir Wind Speed Gust Speed Precip Events Conditions
12:15 AM 30.2 °F - 10.2 °F 43% 30.28 in 10.0 mi Calm Calm - N/A   Clear
12:35 AM 30.2 °F - 13.8 °F 51% 30.27 in 10.0 mi Calm Calm - N/A   Clear
12:55 AM 30.6 °F - 15.6 °F 54% 30.28 in 10.0 mi Calm Calm - N/A   Clear
1:15 AM 30.9 °F - 18.1 °F 59% 30.27 in 10.0 mi Calm Calm - N/A   Clear
1:35 AM 30.7 °F - 18.0 °F 59% 30.27 in 10.0 mi Calm Calm - N/A   Clear
1:55 AM 29.7 °F - 16.5 °F 58% 30.28 in 10.0 mi Calm Calm - N/A   Clear
2:15 AM 29.8 °F - 18.0 °F 61% 30.28 in 10.0 mi Calm Calm - N/A   Clear
2:35 AM 30.0 °F - 19.8 °F 66% 30.28 in 10.0 mi Calm Calm - N/A   Clear
2:55 AM 28.4 °F - 17.6 °F 64% 30.28 in 10.0 mi Calm Calm - N/A   Clear
3:15 AM 28.0 °F - 16.9 °F 63% 30.28 in 10.0 mi Calm Calm - N/A   Clear
3:35 AM 28.0 °F - 18.0 °F 66% 30.27 in 10.0 mi Calm Calm - N/A   Clear
3:55 AM 27.5 °F - 17.4 °F 66% 30.28 in 10.0 mi Calm Calm - N/A   Clear
4:15 AM 26.6 °F - 16.5 °F 66% 30.27 in 10.0 mi Calm Calm - N/A   Clear
4:35 AM 27.5 °F - 20.3 °F 74% 30.27 in 10.0 mi Calm Calm - N/A   Clear
4:55 AM 28.6 °F - 20.8 °F 73% 30.27 in 10.0 mi Calm Calm - N/A   Clear
5:15 AM 27.9 °F - 19.8 °F 72% 30.27 in 10.0 mi Calm Calm - N/A   Clear
5:35 AM 27.5 °F - 20.8 °F 76% 30.28 in 10.0 mi Calm Calm - N/A   Clear
5:55 AM 27.9 °F - 19.6 °F 71% 30.28 in 10.0 mi Calm Calm - N/A   Clear
6:15 AM 26.4 °F - 17.4 °F 69% 30.28 in 10.0 mi Calm Calm - N/A   Clear
6:35 AM 26.4 °F - 19.8 °F 76% 30.29 in 10.0 mi Calm Calm - N/A   Clear
6:55 AM 26.1 °F - 18.1 °F 72% 30.30 in 10.0 mi Calm Calm - N/A   Clear
7:15 AM 26.1 °F - 18.0 °F 71% 30.30 in 10.0 mi Calm Calm - N/A   Clear
7:35 AM 26.2 °F - 17.6 °F 70% 30.31 in 10.0 mi Calm Calm - N/A   Clear
7:55 AM 28.2 °F - 20.8 °F 74% 30.32 in 10.0 mi Calm Calm - N/A   Clear
8:15 AM 31.1 °F - 24.4 °F 76% 30.32 in 10.0 mi Calm Calm - N/A   Clear
8:35 AM 34.5 °F - 28.2 °F 78% 30.32 in 10.0 mi Calm Calm - N/A   Clear
8:55 AM 38.8 °F - 30.7 °F 73% 30.31 in 10.0 mi Calm Calm - N/A   Clear
9:15 AM 42.6 °F - 34.5 °F 73% 30.31 in 10.0 mi Calm Calm - N/A   Clear
9:35 AM 46.4 °F - 30.7 °F 54% 30.30 in 10.0 mi Calm Calm - N/A   Clear
9:55 AM 47.1 °F - 29.3 °F 50% 30.30 in 10.0 mi West 3.5 mph - N/A   Clear
10:15 AM 49.5 °F - 29.8 °F 47% 30.31 in 10.0 mi West 4.6 mph - N/A   Clear
10:35 AM 50.0 °F - 26.2 °F 40% 30.31 in 10.0 mi West 4.6 mph - N/A   Clear
10:55 AM 52.0 °F - 30.2 °F 43% 30.31 in 10.0 mi South 3.5 mph - N/A   Clear
11:15 AM 53.6 °F - 30.0 °F 41% 30.30 in 10.0 mi West 6.9 mph - N/A   Clear
11:35 AM 54.7 °F - 25.2 °F 32% 30.30 in 10.0 mi West 6.9 mph - N/A   Clear
11:55 AM 54.9 °F - 24.4 °F 31% 30.29 in 10.0 mi West 6.9 mph - N/A   Clear
12:15 PM 54.9 °F - 22.8 °F 29% 30.28 in 10.0 mi Calm Calm - N/A   Clear
12:35 PM 56.7 °F - 20.5 °F 25% 30.27 in 10.0 mi WNW 5.8 mph - N/A   Clear
12:55 PM 56.8 °F - 21.7 °F 26% 30.26 in 10.0 mi NNE 3.5 mph - N/A   Clear
1:15 PM 57.4 °F - 18.9 °F 22% 30.25 in 10.0 mi SW 3.5 mph - N/A   Clear
1:35 PM 58.6 °F - 20.3 °F 23% 30.24 in 10.0 mi SSW 3.5 mph - N/A   Clear
1:55 PM 59.0 °F - 20.3 °F 22% 30.22 in 10.0 mi East 4.6 mph - N/A   Clear
2:15 PM 59.9 °F - 19.6 °F 21% 30.21 in 10.0 mi WNW 4.6 mph - N/A   Clear
2:35 PM 58.5 °F - 18.9 °F 21% 30.20 in 10.0 mi SW 5.8 mph - N/A   Clear
2:55 PM 58.1 °F - 18.3 °F 21% 30.19 in 10.0 mi SSW 5.8 mph - N/A   Clear
3:15 PM 60.4 °F - 21.7 °F 23% 30.18 in 10.0 mi WSW 3.5 mph - N/A   Clear
3:35 PM 59.9 °F - 18.0 °F 20% 30.17 in 10.0 mi SSW 4.6 mph - N/A   Clear
3:55 PM 60.6 °F - 18.0 °F 19% 30.17 in 10.0 mi SW 5.8 mph - N/A   Clear
4:15 PM 62.2 °F - 16.0 °F 17% 30.16 in 10.0 mi WSW 5.8 mph - N/A   Scattered Clouds
4:35 PM 62.1 °F - 8.2 °F 12% 30.16 in 10.0 mi WSW 8.1 mph - N/A   Mostly Cloudy
4:55 PM 61.5 °F - 5.4 °F 11% 30.16 in 10.0 mi WSW 6.9 mph 18.4 mph N/A   Scattered Clouds
5:15 PM 59.4 °F - 5.4 °F 12% 30.16 in 10.0 mi WSW 6.9 mph - N/A   Scattered Clouds
5:35 PM 58.1 °F - 7.7 °F 13% 30.16 in 10.0 mi WSW 3.5 mph - N/A   Clear
5:55 PM 58.3 °F - 9.3 °F 14% 30.16 in 10.0 mi West 5.8 mph - N/A   Clear
6:15 PM 59.9 °F - 8.6 °F 13% 30.15 in 10.0 mi WSW 6.9 mph - N/A   Scattered Clouds
6:35 PM 59.0 °F - 11.3 °F 15% 30.16 in 10.0 mi West 6.9 mph - N/A   Mostly Cloudy
6:55 PM 57.9 °F - 8.8 °F 14% 30.16 in 10.0 mi WSW 5.8 mph - N/A   Mostly Cloudy
7:15 PM 55.8 °F - 9.1 °F 16% 30.16 in 10.0 mi WSW 4.6 mph - N/A   Mostly Cloudy
7:35 PM 54.7 °F - 9.7 °F 17% 30.17 in 10.0 mi WSW 3.5 mph - N/A   Scattered Clouds
7:55 PM 53.6 °F - 11.8 °F 19% 30.17 in 10.0 mi WSW 3.5 mph - N/A   Overcast
8:15 PM 52.7 °F - 11.7 °F 19% 30.17 in 10.0 mi Calm Calm - N/A   Overcast
8:35 PM 52.2 °F - 11.1 °F 19% 30.17 in 10.0 mi Calm Calm - N/A   Overcast
8:55 PM 51.1 °F - 10.4 °F 20% 30.18 in 10.0 mi Calm Calm - N/A   Overcast
9:15 PM 50.7 °F - 11.3 °F 21% 30.18 in 10.0 mi Calm Calm - N/A   Overcast
9:55 PM 51.1 °F - 17.2 °F 26% 30.19 in 10.0 mi Calm Calm - N/A   Overcast
10:15 PM 49.1 °F - 11.7 °F 22% 30.20 in 10.0 mi Calm Calm - N/A   Mostly Cloudy
10:35 PM 46.4 °F - 10.6 °F 23% 30.20 in 10.0 mi Calm Calm - N/A   Scattered Clouds
10:55 PM 44.2 °F - 6.1 °F 21% 30.20 in 10.0 mi Calm Calm - N/A   Mostly Cloudy
11:15 PM 42.1 °F - 3.6 °F 20% 30.20 in 10.0 mi Calm Calm - N/A   Mostly Cloudy
11:35 PM 43.5 °F 41.9 °F 17.4 °F 35% 30.20 in 10.0 mi North 3.5 mph - N/A   Overcast
11:55 PM 44.6 °F - 13.8 °F 29% 30.20 in 10.0 mi Calm Calm - N/A   Overcast